Location: Killam
(52.7910°N, 111.8608°W)
Time: 20:02:01
(UTC+00:00)

A-11 Canister half - Pass Details

Date: 16 February 2026
Orbit: 1525 x 1683 km, 47.3° (Epoch: 5 March)

Event Time Altitude Azimuth Distance (km) Brightness Sun altitude
Rises 23:59:02 0° 211° (SSW) 4,710 12.7 4.8°
Reaches altitude 10° 00:02:29 10° 202° (SSW) 3,712 11.9 4.4°
Maximum altitude 00:10:26 33° 143° (SE) 2,350 10.0 3.3°
Drops below altitude 10° 00:18:21 10° 84° (E) 3,696 10.4 2.2°
Sets 00:21:45 0° 76° (ENE) 4,687 10.9 1.7°
